TimeHST,TemperatureF,Dew PointF,Humidity,Sea Level PressureIn,VisibilityMPH,Wind Direction,Wind SpeedMPH,Gust SpeedMPH,PrecipitationIn,Events,Conditions,WindDirDegrees,DateUTC
12:54 AM,64.9,61.0,87,30.09,10.0,Calm,Calm,-,N/A,,Clear,0,2012-12-01 10:54:00
1:54 AM,64.9,61.0,87,30.07,10.0,Calm,Calm,-,N/A,,Clear,0,2012-12-01 11:54:00
2:54 AM,64.0,60.1,87,30.04,10.0,Calm,Calm,-,N/A,,Clear,0,2012-12-01 12:54:00
3:54 AM,62.1,57.0,84,30.04,10.0,ENE,3.5,-,N/A,,Clear,70,2012-12-01 13:54:00
4:54 AM,64.9,57.9,78,30.04,10.0,ENE,6.9,-,N/A,,Clear,70,2012-12-01 14:54:00
5:54 AM,62.1,55.9,80,30.06,10.0,Calm,Calm,-,N/A,,Clear,0,2012-12-01 15:54:00
6:54 AM,64.0,57.9,80,30.08,10.0,Calm,Calm,-,N/A,,Partly Cloudy,0,2012-12-01 16:54:00
7:54 AM,69.1,61.0,75,30.07,10.0,ENE,3.5,-,N/A,,Clear,70,2012-12-01 17:54:00
8:54 AM,73.9,61.0,64,30.08,10.0,SE,5.8,-,N/A,,Partly Cloudy,130,2012-12-01 18:54:00
9:54 AM,77.0,61.0,58,30.09,10.0,SE,3.5,-,N/A,,Partly Cloudy,130,2012-12-01 19:54:00
10:54 AM,80.1,55.9,43,30.07,10.0,Variable,3.5,-,N/A,,Partly Cloudy,0,2012-12-01 20:54:00
11:54 AM,80.1,57.9,47,30.06,10.0,Variable,5.8,-,N/A,,Partly Cloudy,0,2012-12-01 21:54:00
12:54 PM,78.1,61.0,56,30.04,10.0,Calm,Calm,-,N/A,,Mostly Cloudy,0,2012-12-01 22:54:00
1:54 PM,78.1,61.0,56,30.02,10.0,NNW,6.9,-,N/A,,Partly Cloudy,340,2012-12-01 23:54:00
2:54 PM,78.1,61.0,56,30.00,10.0,Variable,3.5,-,N/A,,Partly Cloudy,0,2012-12-02 00:54:00
3:54 PM,78.1,64.0,62,30.01,10.0,SSE,6.9,-,N/A,,Partly Cloudy,160,2012-12-02 01:54:00
4:54 PM,75.0,64.9,71,30.02,10.0,SSE,5.8,-,N/A,,Clear,160,2012-12-02 02:54:00
5:54 PM,75.0,64.9,71,30.05,10.0,SE,3.5,-,N/A,,Scattered Clouds,130,2012-12-02 03:54:00
6:01 PM,75.2,64.4,69,30.04,10.0,SE,3.5,-,N/A,,Overcast,140,2012-12-02 04:01:00
6:54 PM,73.0,64.9,76,30.06,10.0,East,4.6,-,N/A,,Mostly Cloudy,100,2012-12-02 04:54:00
7:20 PM,73.4,64.4,73,30.06,10.0,ESE,3.5,-,N/A,,Partly Cloudy,110,2012-12-02 05:20:00
7:54 PM,72.0,64.0,76,30.09,10.0,Calm,Calm,-,N/A,,Partly Cloudy,0,2012-12-02 05:54:00
8:54 PM,72.0,64.0,76,30.09,10.0,Calm,Calm,-,N/A,,Partly Cloudy,0,2012-12-02 06:54:00
9:54 PM,71.1,64.0,78,30.10,10.0,Calm,Calm,-,N/A,,Clear,0,2012-12-02 07:54:00
10:54 PM,71.1,63.0,75,30.08,10.0,East,4.6,-,N/A,,Clear,80,2012-12-02 08:54:00
11:54 PM,71.1,64.0,78,30.06,10.0,East,3.5,-,N/A,,Clear,80,2012-12-02 09:54:00